[[{"header":{"parameterUnit":"m.s-1","parameterCategory":1,"la1":30.2991,"la2":30.254,"lo1":-89.0895,"lo2":-89.0444,"dy":0.0017,"dx":0.0017,"nx":28,"ny":28,"refTime":"2023-10-31T03:00:00:Z","depth":0,"parameterNumber":2,"parameterNumberName":"U-component_of_WINDS"},"data":[0,0,0,0,0,0,0,0,0,0,0,0,0,0,0,0,0,0,0,0,0,0,0,0,0,0,0,0,0,0,0,0,0,0,0,0,0,0,0,0,0,0,0,0,0,0,0,0,0,0,0,0,0,0,0,0,0,0,-0.7209,-0.7209,0,-0.7237,-0.7237,-0.7237,-0.7226,-0.7226,-0.7225,-0.7224,-0.7253,-0.7254,-0.7256,0,0,0,0,0,0,0,0,0,0,0,0,0,-0.7145,-0.7146,-0.7209,-0.7209,-0.7209,-0.7237,-0.7237,-0.7237,-0.7226,-0.7226,-0.7225,-0.7224,-0.7253,-0.7254,-0.7256,0,0,0,0,0,0,0,0,0,0,0,0,0,-0.7172,-0.7146,-0.7209,-0.7207,-0.7207,-0.7237,-0.7237,-0.7238,-0.7227,-0.7226,-0.7225,-0.7224,-0.7252,-0.7254,-0.7256,-0.7288,0,0,-0.7262,-0.7263,0,0,0,0,0,0,0,0,-0.7171,-0.7175,-0.7207,-0.7207,-0.7208,-0.7227,-0.7225,-0.7255,-0.7227,-0.7219,-0.7224,-0.7223,-0.7245,-0.7248,-0.7255,-0.729,-0.7291,-0.7263,-0.7264,-0.7265,-0.7265,0,0,0,0,0,0,0,-0.7169,-0.7174,-0.722,-0.7207,-0.7208,-0.7205,-0.7208,-0.7231,-0.7237,-0.722,-0.7219,-0.7223,-0.7245,-0.7253,-0.7256,-0.7291,-0.7262,-0.7264,-0.7266,-0.7266,-0.7353,-0.7354,0,0,0,0,0,0,-0.7167,-0.7172,-0.7219,-0.7221,-0.7186,-0.7207,-0.721,-0.7222,-0.7237,-0.7238,-0.7223,-0.7222,-0.725,-0.7253,-0.7257,-0.7296,-0.7265,-0.7267,-0.7268,-0.7352,-0.7354,-0.7355,0,0,0,0,0,0,-0.7166,-0.7171,-0.7218,-0.7196,-0.7202,-0.7209,-0.7222,-0.7223,-0.7231,-0.724,-0.7241,-0.7231,-0.725,-0.7254,-0.7281,-0.7296,-0.7268,-0.7269,-0.7351,-0.7353,-0.7354,-0.7374,0,0,0,0,0,0,-0.7164,-0.7171,-0.7184,-0.7197,-0.7203,-0.7242,-0.7223,-0.7224,-0.7235,-0.7233,-0.7247,-0.7248,-0.7249,-0.7278,-0.7283,-0.7299,-0.7271,-0.735,-0.7352,-0.7354,-0.7372,-0.7376,-0.7379,0,0,0,0,0,-0.7162,-0.7188,-0.7184,-0.719,-0.7219,-0.7242,-0.7246,-0.7247,-0.7236,-0.7249,-0.7254,-0.7248,-0.7294,-0.728,-0.7286,-0.7303,-0.7349,-0.7351,-0.7354,-0.737,-0.7375,-0.7379,0,0,0,0,0,0,-0.7177,-0.719,-0.7186,-0.7217,-0.7229,-0.7241,-0.7257,-0.7252,-0.7267,-0.7265,-0.7265,-0.7268,-0.7296,-0.7302,-0.7287,-0.7335,-0.7319,-0.7323,-0.733,-0.7335,-0.7338,-0.7337,-0.7273,0,0,0,0,0,-0.7184,-0.7202,-0.7212,-0.7239,-0.7245,-0.725,-0.726,-0.7259,-0.7271,-0.7276,-0.7284,-0.7295,-0.7312,-0.7324,-0.734,-0.7372,-0.7375,-0.7386,-0.739,-0.7393,-0.7397,-0.7413,-0.7419,-0.7363,-0.7363,-0.7363,0,0,-0.7199,-0.7208,-0.7219,-0.7242,-0.7251,-0.727,-0.7254,-0.7274,-0.7288,-0.7279,-0.7305,-0.7311,-0.7324,-0.7353,-0.7367,-0.7359,-0.7412,-0.7396,-0.7399,-0.74,-0.7417,-0.7422,-0.7427,-0.7364,-0.7364,-0.7364,0,0,-0.7235,-0.7244,-0.7267,-0.7276,-0.729,-0.7293,-0.7298,-0.731,-0.7314,-0.734,-0.7333,-0.7349,-0.7379,-0.7388,-0.7397,-0.7436,-0.743,-0.7441,-0.7461,-0.7477,-0.7482,-0.7486,-0.75,-0.7505,-0.7444,-0.7444,-0.7444,0,-0.7252,-0.728,-0.728,-0.73,-0.731,-0.7303,-0.7326,-0.7335,-0.7353,-0.736,-0.7351,-0.7388,-0.7396,-0.7427,-0.7437,-0.7444,-0.745,-0.744,-0.7481,-0.7485,-0.7489,-0.7502,-0.7507,-0.7445,-0.7445,-0.7445,-0.7445,0,-0.73,-0.7319,-0.7336,-0.7354,-0.7365,-0.7387,-0.739,-0.7402,-0.74,-0.7403,-0.7429,-0.7439,-0.7456,-0.7464,-0.7462,-0.7495,-0.749,-0.7481,-0.7466,-0.7495,-0.7508,-0.7513,-0.7447,-0.7447,-0.7446,-0.7446,0,0,-0.7348,-0.7364,-0.7371,-0.7378,-0.7392,-0.7407,-0.7428,-0.7445,-0.7456,-0.7468,-0.7486,-0.751,-0.7502,-0.7512,-0.7511,-0.7525,-0.7555,-0.7515,-0.7515,-0.7523,-0.7592,-0.7599,-0.7604,-0.7552,-0.7552,-0.7553,-0.7591,0,-0.7386,-0.7423,-0.7423,-0.7457,-0.7475,-0.7468,-0.7486,-0.7496,-0.75,-0.7515,-0.7519,-0.7536,-0.7524,-0.753,-0.7544,-0.7549,-0.7569,-0.7546,-0.7568,-0.7569,-0.7566,-0.7611,-0.7618,-0.7653,-0.7596,-0.7596,-0.7597,0,-0.7435,-0.7449,-0.7485,-0.7496,-0.7504,-0.752,-0.7536,-0.755,-0.7561,-0.7563,-0.7573,-0.757,-0.7591,-0.7574,-0.7603,-0.7587,-0.7596,-0.76,-0.7601,-0.7604,-0.7585,-0.7615,-0.7665,-0.767,-0.7605,-0.7604,-0.7604,0,-0.7467,-0.7495,-0.752,-0.7527,-0.754,-0.7552,-0.7558,-0.7568,-0.7578,-0.7591,-0.7598,-0.7613,-0.7622,-0.7634,-0.7634,-0.7622,-0.7663,-0.7647,-0.7665,-0.7665,-0.7675,-0.7674,-0.7727,-0.7679,-0.7679,-0.7679,-0.7679,0,-0.751,-0.7532,-0.7534,-0.755,-0.7575,-0.7574,-0.7598,-0.7603,-0.7612,-0.7628,-0.7622,-0.7637,-0.7637,-0.7652,-0.7652,-0.7676,-0.768,-0.7682,-0.7682,-0.7683,-0.7683,-0.7689,-0.7687,-0.7681,-0.768,-0.768,-0.768,0,-0.755,-0.7552,-0.7579,-0.7589,-0.7592,-0.761,-0.7618,-0.7633,-0.7635,-0.7656,-0.766,-0.7664,-0.7682,-0.7684,-0.7704,-0.7704,-0.7733,-0.773,-0.7729,-0.7729,-0.7747,-0.7746,-0.7806,-0.7814,-0.7761,-0.7762,-0.7762,0,-0.7577,-0.7595,-0.7606,-0.7616,-0.7623,-0.764,-0.765,-0.7649,-0.766,-0.7673,-0.7686,-0.7703,-0.7717,-0.7745,-0.775,-0.7765,-0.7763,-0.7783,-0.7765,-0.7765,-0.7763,-0.7763,-0.7764,-0.7787,-0.7787,-0.7788,-0.7788,0,-0.7626,-0.7626,-0.7641,-0.7656,-0.7669,-0.7681,-0.7692,-0.77,-0.7701,-0.7713,-0.7731,-0.7742,-0.7762,-0.7779,-0.7794,-0.7799,-0.7794,-0.7793,-0.7798,-0.78,-0.7799,-0.78,-0.7739,-0.7792,-0.7792,-0.7791,-0.7791,-0.7791,-0.7661,-0.7676,-0.7686,-0.7703,-0.7711,-0.7721,-0.7735,-0.7739,-0.7754,-0.7771,-0.7769,-0.7789,-0.7799,-0.7818,-0.7825,-0.784,-0.7833,-0.784,-0.7842,-0.7844,-0.7846,-0.7796,-0.7843,-0.7842,-0.7842,-0.7842,-0.7842,0,-0.7709,-0.7715,-0.7731,-0.7746,-0.7759,-0.7753,-0.7764,-0.7776,-0.7793,-0.7803,-0.7816,-0.7836,-0.7852,-0.7857,-0.7873,-0.7884,-0.7882,-0.7888,-0.7888,-0.7889,-0.7852,-0.7846,-0.789,-0.7889,-0.7889,-0.7889,-0.7889,-0.7889,-0.7736,-0.7761,-0.7762,-0.779,-0.7796,-0.7815,-0.7822,-0.7832,-0.7839,-0.7862,-0.7875,-0.7879,-0.7886,-0.7902,-0.7916,-0.7917,-0.7923,-0.7931,-0.7931,-0.7896,-0.7892,-0.7887,-0.7882,-0.7932,-0.7932,-0.7967,-0.7967,-0.7968]},{"header":{"parameterUnit":"m.s-1","parameterCategory":1,"la1":30.2991,"la2":30.254,"lo1":-89.0895,"lo2":-89.0444,"dy":0.0017,"dx":0.0017,"nx":28,"ny":28,"refTime":"2023-10-31T03:00:00:Z","depth":0,"parameterNumber":3,"parameterNumberName":"V-component_of_WINDS"},"data":[0,0,0,0,0,0,0,0,0,0,0,0,0,0,0,0,0,0,0,0,0,0,0,0,0,0,0,0,0,0,0,0,0,0,0,0,0,0,0,0,0,0,0,0,0,0,0,0,0,0,0,0,0,0,0,0,0,0,-7.1147,-7.1148,0,-7.1231,-7.1232,-7.1233,-7.1187,-7.1184,-7.1182,-7.118,-7.1259,-7.1263,-7.1268,0,0,0,0,0,0,0,0,0,0,0,0,0,-7.0943,-7.0947,-7.1147,-7.1148,-7.1149,-7.1231,-7.1232,-7.1233,-7.1187,-7.1184,-7.1182,-7.1179,-7.1258,-7.1263,-7.1268,0,0,0,0,0,0,0,0,0,0,0,0,0,-7.103,-7.0948,-7.1147,-7.1136,-7.1136,-7.123,-7.1232,-7.1233,-7.1188,-7.1184,-7.1181,-7.1178,-7.1256,-7.1262,-7.1269,-7.1376,0,0,-7.1288,-7.1291,0,0,0,0,0,0,0,0,-7.1025,-7.1037,-7.1137,-7.1137,-7.1137,-7.1195,-7.1189,-7.1281,-7.1189,-7.1168,-7.118,-7.1176,-7.124,-7.1248,-7.1271,-7.138,-7.1383,-7.1289,-7.1292,-7.1295,-7.1297,0,0,0,0,0,0,0,-7.1019,-7.1033,-7.118,-7.1138,-7.1139,-7.1126,-7.1134,-7.1206,-7.1222,-7.117,-7.1166,-7.1177,-7.124,-7.1265,-7.1272,-7.1384,-7.1288,-7.1294,-7.1298,-7.13,-7.1586,-7.1589,0,0,0,0,0,0,-7.1014,-7.1029,-7.1177,-7.1182,-7.1072,-7.1132,-7.1142,-7.118,-7.1221,-7.1224,-7.118,-7.1175,-7.1255,-7.1265,-7.1275,-7.1404,-7.1295,-7.1301,-7.1305,-7.1582,-7.1587,-7.1591,0,0,0,0,0,0,-7.101,-7.1028,-7.1174,-7.1105,-7.1122,-7.114,-7.1182,-7.1183,-7.1208,-7.1229,-7.1231,-7.1203,-7.1253,-7.1266,-7.1352,-7.1406,-7.1304,-7.131,-7.1578,-7.1583,-7.1589,-7.1662,0,0,0,0,0,0,-7.1004,-7.1027,-7.1069,-7.1106,-7.1126,-7.1251,-7.1186,-7.1187,-7.122,-7.1214,-7.1251,-7.1254,-7.1251,-7.1342,-7.1358,-7.1412,-7.1315,-7.1573,-7.158,-7.1587,-7.1655,-7.1669,-7.1682,0,0,0,0,0,-7.0997,-7.1084,-7.1071,-7.1089,-7.118,-7.1255,-7.1266,-7.1263,-7.1225,-7.1266,-7.128,-7.1253,-7.1397,-7.1352,-7.1369,-7.1426,-7.1569,-7.1578,-7.1586,-7.1648,-7.1666,-7.1681,0,0,0,0,0,0,-7.105,-7.1089,-7.1075,-7.1177,-7.1213,-7.1247,-7.1299,-7.1282,-7.1328,-7.132,-7.1312,-7.1321,-7.1411,-7.1426,-7.1375,-7.1532,-7.1477,-7.1489,-7.1518,-7.1536,-7.1549,-7.1543,-7.132,0,0,0,0,0,-7.1074,-7.1134,-7.1164,-7.1251,-7.127,-7.1282,-7.1314,-7.1309,-7.1345,-7.136,-7.1379,-7.1414,-7.1467,-7.1502,-7.1552,-7.1657,-7.1664,-7.1704,-7.1718,-7.1729,-7.174,-7.1797,-7.1815,-7.1619,-7.1619,-7.1618,0,0,-7.1124,-7.1152,-7.119,-7.1263,-7.129,-7.135,-7.1295,-7.1361,-7.1405,-7.1369,-7.1452,-7.1468,-7.1506,-7.1602,-7.1645,-7.1618,-7.1796,-7.174,-7.1749,-7.1753,-7.1807,-7.1826,-7.1842,-7.1624,-7.1623,-7.1622,0,0,-7.1245,-7.1273,-7.1349,-7.1378,-7.1422,-7.1429,-7.1447,-7.1484,-7.1494,-7.1578,-7.1553,-7.1604,-7.1696,-7.1724,-7.1751,-7.1885,-7.1861,-7.1901,-7.1972,-7.2027,-7.2043,-7.2056,-7.2104,-7.2121,-7.1911,-7.1912,-7.1912,0,-7.13,-7.1392,-7.139,-7.1459,-7.1491,-7.1464,-7.1541,-7.1568,-7.1625,-7.1647,-7.1616,-7.1732,-7.1756,-7.1858,-7.1891,-7.1913,-7.1933,-7.1896,-7.2041,-7.2055,-7.2067,-7.2113,-7.2131,-7.1916,-7.1916,-7.1915,-7.1915,0,-7.1458,-7.1522,-7.1578,-7.1637,-7.1675,-7.1748,-7.1755,-7.1794,-7.1786,-7.1796,-7.1882,-7.191,-7.1965,-7.1989,-7.198,-7.2091,-7.2073,-7.2042,-7.1986,-7.2091,-7.2133,-7.2151,-7.1923,-7.1921,-7.192,-7.1918,0,0,-7.1613,-7.1672,-7.1692,-7.1719,-7.1765,-7.1814,-7.1884,-7.1941,-7.1975,-7.2015,-7.2074,-7.2153,-7.2125,-7.2155,-7.215,-7.2199,-7.2303,-7.2162,-7.2162,-7.2187,-7.2427,-7.245,-7.247,-7.2289,-7.2292,-7.2294,-7.2424,0,-7.1738,-7.1865,-7.1865,-7.1981,-7.204,-7.2016,-7.2077,-7.2112,-7.2123,-7.2174,-7.2186,-7.2242,-7.2201,-7.222,-7.2267,-7.2281,-7.2351,-7.2271,-7.2342,-7.2344,-7.2333,-7.2492,-7.2517,-7.2637,-7.244,-7.2443,-7.2445,0,-7.19,-7.1948,-7.2071,-7.211,-7.2135,-7.2191,-7.2243,-7.2292,-7.233,-7.2335,-7.237,-7.2358,-7.2428,-7.2371,-7.2468,-7.2414,-7.2443,-7.2454,-7.2459,-7.2465,-7.2401,-7.2503,-7.2676,-7.2694,-7.2471,-7.2469,-7.2467,0,-7.2002,-7.2097,-7.2183,-7.2206,-7.2254,-7.2294,-7.2315,-7.235,-7.2385,-7.243,-7.2452,-7.2504,-7.2533,-7.2573,-7.2574,-7.2533,-7.2672,-7.2615,-7.2677,-7.2677,-7.2707,-7.2705,-7.2887,-7.2726,-7.2726,-7.2726,-7.2725,0,-7.214,-7.2216,-7.223,-7.2283,-7.2367,-7.2366,-7.2449,-7.2466,-7.2498,-7.2553,-7.2534,-7.2585,-7.2584,-7.2636,-7.2637,-7.2717,-7.273,-7.2735,-7.2734,-7.2737,-7.2737,-7.2755,-7.2747,-7.273,-7.2729,-7.2728,-7.2728,0,-7.2268,-7.228,-7.2372,-7.2411,-7.2423,-7.2483,-7.2515,-7.2565,-7.2575,-7.2645,-7.2661,-7.2677,-7.2737,-7.2743,-7.2812,-7.2813,-7.291,-7.29,-7.2898,-7.2896,-7.2958,-7.2952,-7.3159,-7.3186,-7.3007,-7.3009,-7.301,0,-7.2356,-7.2414,-7.246,-7.2497,-7.2521,-7.258,-7.2616,-7.2617,-7.2655,-7.2704,-7.2748,-7.2807,-7.2854,-7.2951,-7.2967,-7.302,-7.3012,-7.308,-7.3019,-7.302,-7.3013,-7.3009,-7.3015,-7.3092,-7.3094,-7.3095,-7.3097,0,-7.2511,-7.2514,-7.2568,-7.2625,-7.2669,-7.2713,-7.2754,-7.2784,-7.2791,-7.2834,-7.2897,-7.2934,-7.3006,-7.3064,-7.3117,-7.3136,-7.3118,-7.3116,-7.3133,-7.3136,-7.3133,-7.3136,-7.293,-7.3111,-7.311,-7.3109,-7.3108,-7.3107,-7.2621,-7.2672,-7.2713,-7.2774,-7.2806,-7.2845,-7.2894,-7.2912,-7.2966,-7.3026,-7.3023,-7.3092,-7.3129,-7.3198,-7.3222,-7.3275,-7.3251,-7.3276,-7.3282,-7.3289,-7.3295,-7.3125,-7.3284,-7.3283,-7.3283,-7.3283,-7.3282,0,-7.2775,-7.2801,-7.2857,-7.2917,-7.2965,-7.2946,-7.299,-7.3031,-7.3093,-7.313,-7.3178,-7.325,-7.3307,-7.3329,-7.3384,-7.3422,-7.3415,-7.3437,-7.3434,-7.3439,-7.3313,-7.3293,-7.3442,-7.3442,-7.3442,-7.3442,-7.3442,-7.3442,-7.2861,-7.2947,-7.2956,-7.3057,-7.3081,-7.3152,-7.3179,-7.3214,-7.3244,-7.3327,-7.3375,-7.339,-7.3421,-7.3478,-7.3529,-7.3534,-7.3555,-7.3581,-7.3582,-7.3464,-7.3448,-7.3432,-7.3413,-7.3585,-7.3586,-7.3704,-7.3705,-7.3706]}]]